User: anonymous   Login
Location: Unspecified
(0.0000°N, 0.0000°E)
Time: 16:29:23
(UTC+00:00)
Language:

PCSat - Orbit

View from above orbital plane
View from above orbital plane
View from above satellite
View from above satellite

Ground track
Ground track

The orbit data is extracted from the following two-line orbital elements,

1 26931U 01043C   17204.88464915 -.00000059 +00000-0 +92677-5 0  9999
2 26931 067.0520 356.5105 0007371 260.3529 099.6739 14.30467264825525
Epoch (UTC): 23 July 2017 21:13:53
Eccentricity: 0.0007371
inclination: 67.0520°
perigee height: 785 km
apogee height: 795 km
right ascension of ascending node: 356.5105°
argument of perigee: 260.3529°
revolutions per day: 14.30467264
mean anomaly at epoch: 99.6739°
orbit number at epoch: 82552

The dashed part of the orbit path shows where the satellite is in the earth's shadow,  

DLR